Regional Weather Roundup
Issued by NWS Northern Indiana

Home | Current Version | Previous Version | Graphics & Text | Print | Product List | Glossary On
Versions: 1 2 3 4 5 6 7 8 9 10 11 12 13 14 15 16 17 18 19 20 21 22 23 24 25 26 27 28 29 30 31 32 33 34 35 36 37 38 39 40 41 42 43 44 45 46 47 48 49 50
000
ASUS43 KIWX 090210
RWRIWX

KIWX WEATHER ROUNDUP
NATIONAL WEATHER SERVICE NORTHERN INDIANA
900 PM EST THU DEC 08 2016

NOTE: "FAIR" INDICATES FEW OR NO CLOUDS BELOW 12,000 FEET WITH NO
SIGNIFICANT WEATHER AND/OR OBSTRUCTIONS TO VISIBILITY.

* THESE STATIONS ARE NOT UNDER NWS QUALITY CONTROL. THEY ALSO MAY NOT
  REPORT WEATHER SUCH AS PRECIPITATION OR FOG.

INZ001>027-090300-
NORTHERN INDIANA

CITY           SKY/WX    TMP DP  RH WIND       PRES   REMARKS
GARY*          CLOUDY    25  16  68 W26       30.40S WCI   9
VALPARAISO     FLURRIES  23  15  71 MISG      30.38S
MICHIGAN CITY* CLOUDY    27  19  74 W9G16     30.37R WCI  17
LAPORTE*       FLURRIES  22  16  78 W8        30.36S WCI  13
KNOX*          CLOUDY    23   0  36 W12       30.39R WCI  12
SOUTH BEND     LGT SNOW  20  17  88 SW12      30.34R FOG     WCI   8
ELKHART*       LGT SNOW  21  18  86 SW13      30.32S WCI   9
GOSHEN         FLURRIES  21  14  74 W15       30.34R WCI   8
MONTICELLO*    FLURRIES  22  12  67 W14       30.42S WCI   9
LOGANSPORT*    FLURRIES  21  16  79 NW8G17    30.43R WCI  12
ROCHESTER*     FLURRIES  23  19  86 W8        30.39S WCI  14
WARSAW*        FLURRIES  21  12  68 W16       30.35S WCI   7
ANGOLA*        CLOUDY    19  16  86 W12       30.28R WCI   7
FORT WAYNE     FLURRIES  21  14  74 W18       30.36S WCI   6
HUNTINGTON*    FLURRIES  20  13  75 W15G22    30.37S WCI   6
PERU/GRISSOM   FLURRIES  21  15  78 W14       30.39R WCI   8
MARION*        FLURRIES  19  15  84 NW17      30.41S WCI   4

$$
INZ028>050-090300-
CENTRAL INDIANA

CITY           SKY/WX    TMP DP  RH WIND       PRES   REMARKS
LAFAYETTE      FLURRIES  21  15  78 W9        30.45R WCI  11
KOKOMO*        FLURRIES  20  16  84 W15       30.42R WCI   6
MUNCIE*        LGT SNOW  21  14  74 NW14G23   30.40R WCI   8
INDIANAPOLIS   FLURRIES  22  13  68 W13G22    30.44R WCI  10

$$
MIZ043>046-050>051-056>058-064>065-071>073-077>080-090300-
SOUTHWEST LOWER MICHIGAN

CITY           SKY/WX    TMP DP  RH WIND       PRES   REMARKS
BATTLE CREEK   MOCLDY    25  22  88 W13       30.24S WCI  14
BENTON HARBOR  FLURRIES  29  18  63 W14G22    30.31S WCI  18
COLDWATER*     FLURRIES  22  19  87 SW9G16    30.27R WCI  12
HILLSDALE*     FLURRIES  21  18  86 W12G18    30.23S WCI   9
HOLLAND        CLOUDY    31  20  63 W8        30.26R WCI  23
GRAND RAPIDS   CLOUDY    29  21  72 W9        30.23R WCI  20
KALAMAZOO      LGT SNOW  26  22  84 W10       30.27R FOG     WCI  16
STURGIS*       LGT SNOW  20  17  86 W9        30.29R WCI  10
THREE RIVERS*  LGT SNOW  22  19  89 SW7       30.30R WCI  13

$$
OHZ001>008-015>018-024>025-090300-
NORTHWEST OHIO

CITY           SKY/WX    TMP DP  RH WIND       PRES   REMARKS
WAUSEON*       FLURRIES  21  18  86 W18G24    30.27S WCI   6
DEFIANCE       CLOUDY    22  14  71 SW12G22   30.32R WCI  10
FINDLAY        FLURRIES  22  14  71 W23       30.30S WCI   6
TOLEDO EXPRESS PTCLDY    21  17  84 W17       30.28R WCI   7
TOLEDO METCALF CLOUDY    23  17  78 W16       30.29R WCI  10
LIMA           FLURRIES  20  15  81 W18       30.32S WCI   5

$$
AND FOR LAKE MICHIGAN COASTAL AND OPEN LAKE BUOY OBSERVATIONS

STATION/POSITION TEMP    WIND        PRES    VSBY  WAVE
                 AIR SEA DIR/SP/G                  HT/PER
                 (F)     (DEG/KT/KT) (MB)    (MI)  (FT/S)
CALUMET HARBOR    24     270/  9/ 17 1028.3S
BURNS HARBOR      26     290/ 20     1028.8R
SAINT JOSEPH      31     300/ 16/ 25 1027.1

$$
&&




USA.gov is the U.S. government's official web portal to all federal, state and local government web resources and services.